Cosmos 1378 - Orbit

View from above orbital plane
View from above orbital plane
View from above satellite
View from above satellite

Ground track
Ground track

The orbit data is extracted from the following two-line orbital elements,

1 13271U 82059A   13140.44661914  .00004125  00000-0  24254-3 0  2098
2 13271 082.4740 251.1736 0009735 069.7428 004.8553 15.11384397684191
Epoch (UTC): 20 May 2013 10:43:07
Eccentricity: 0.0009735
inclination: 82.4740°
perigee height: 525 km
apogee height: 539 km
right ascension of ascending node: 251.1736°
argument of perigee: 69.7428°
revolutions per day: 15.11384397
mean anomaly at epoch: 4.8553°
orbit number at epoch: 68419

The dashed part of the orbit path shows where the satellite is in the earth's shadow,  

Developed and maintained by Chris Peat, Heavens-Above GmbH. Please read the updated FAQ before sending e-mail. Imprint. DLR